QPF
0.00 0.00 0.00 0.00 0.00 0.00 0.00 0.00 0.00 0.00 0.00 0.00 0.00 0.00 0.00 0.00 0.00 0.00 0.00 0.00 0.00 0.00 0.00 0.00 0.00 0.00 0.00 0.00 0.00 0.00 0.00 0.00 0.00 0.00 0.00 0.00 0.00 0.00 0.00 0.00 0.00 0.00 0.00 0.00 0.00 0.00 0.00 0.00 0.00
0.00 0.00 0.00 0.00 0.00 0.00 0.00 0.00 0.00 0.00 0.00 0.00 0.00 0.00 0.00 0.00 0.00 0.00 0.00 0.00 0.00 0.00 0.00 0.00 0.00 0.00 0.00 0.00 0.00 0.00 0.00 0.00 0.00 0.00 0.00 0.00 0.00 0.00 0.00 0.00 0.00 0.00 0.00 0.00 0.00 0.00 0.00 0.00 0.00
0.00 0.00 0.00 0.00 0.00 0.00 0.00 0.00 0.00 0.00 0.00 0.00 0.00 0.00 0.00 0.00 0.00 0.00 0.00 0.00 0.00 0.00 0.00 0.00 0.00 0.00 0.00 0.00 0.00 0.00 0.00 0.00 0.00 0.00 0.00 0.00 0.00 0.00 0.00 0.00 0.00 0.00 0.00 0.00 0.00 0.00 0.00 0.00 0.00
0.00 0.00 0.00 0.00 0.00 0.00 0.00 0.00 0.00 0.00 0.00 0.00 0.00 0.00 0.00 0.00 0.00 0.00 0.00 0.00 0.00 0.00 0.00 0.00 0.00 0.00 0.00 0.00 0.00 0.00 0.00 0.00 0.00 0.00 0.00 0.00 0.00 0.00 0.00 0.00 0.00 0.00 0.00 0.00 0.00 0.00 0.00 0.01 0.01
0.00 0.00 0.00 0.00 0.00 0.00 0.00 0.00 0.00 0.00 0.00 0.00 0.00 0.00 0.00 0.00 0.00 0.00 0.00 0.00 0.00 0.00 0.00 0.00 0.00 0.00 0.00 0.00 0.00 0.00 0.00 0.00 0.00 0.00 0.00 0.00 0.00 0.00 0.00 0.00 0.00 0.00 0.00 0.01 0.04 0.02 0.00 0.01 0.02
0.00 0.00 0.00 0.00 0.00 0.00 0.00 0.00 0.00 0.00 0.00 0.00 0.00 0.00 0.00 0.00 0.00 0.00 0.00 0.00 0.00 0.00 0.00 0.00 0.00 0.00 0.00 0.00 0.00 0.00 0.00 0.00 0.00 0.00 0.00 0.00 0.00 0.00 0.00 0.01 0.00 0.00 0.00 0.01 0.02 0.03 0.02 0.00 0.00
0.00 0.00 0.00 0.00 0.00 0.00 0.00 0.00 0.00 0.00 0.00 0.00 0.00 0.00 0.00 0.00 0.00 0.00 0.00 0.00 0.00 0.00 0.00 0.00 0.00 0.00 0.00 0.00 0.00 0.00 0.00 0.00 0.00 0.00 0.00 0.00 0.00 0.00 0.00 0.00 0.00 0.00 0.00 0.00 0.00 0.00 0.01 0.00 0.00
0.00 0.00 0.00 0.00 0.00 0.00 0.00 0.00 0.00 0.00 0.00 0.00 0.00 0.00 0.00 0.00 0.00 0.00 0.00 0.00 0.00 0.00 0.00 0.00 0.00 0.00 0.00 0.00 0.00 0.00 0.00 0.00 0.00 0.00 0.00 0.00 0.00 0.00 0.00 0.00 0.00 0.00 0.00 0.00 0.00 0.00 0.00 0.00 0.00
0.00 0.00 0.00 0.00 0.00 0.00 0.00 0.00 0.00 0.00 0.00 0.00 0.00 0.00 0.00 0.00 0.00 0.00 0.00 0.00 0.00 0.00 0.00 0.00 0.00 0.00 0.00 0.00 0.00 0.00 0.00 0.00 0.00 0.00 0.00 0.00 0.00 0.00 0.00 0.00 0.00 0.00 0.00 0.00 0.00 0.00 0.00 0.00 0.00
0.00 0.00 0.00 0.00 0.00 0.00 0.00 0.00 0.00 0.00 0.00 0.00 0.00 0.00 0.00 0.00 0.00 0.00 0.00 0.00 0.00 0.00 0.00 0.00 0.00 0.00 0.00 0.00 0.00 0.00 0.00 0.00 0.00 0.00 0.00 0.00 0.00 0.00 0.00 0.00 0.00 0.00 0.00 0.00 0.00 0.00 0.00 0.00 0.00
0.00 0.00 0.00 0.00 0.00 0.00 0.00 0.00 0.00 0.00 0.00 0.00 0.00 0.00 0.00 0.00 0.00 0.00 0.00 0.00 0.00 0.00 0.00 0.00 0.00 0.00 0.00 0.00 0.00 0.00 0.00 0.00 0.00 0.00 0.00 0.00 0.00 0.00 0.00 0.00 0.00 0.00 0.00 0.00 0.00 0.00 0.00 0.00 0.00
0.00 0.00 0.00 0.00 0.00 0.00 0.00 0.00 0.00 0.00 0.00 0.00 0.00 0.00 0.00 0.00 0.00 0.00 0.00 0.00 0.00 0.00 0.00 0.00 0.00 0.00 0.00 0.00 0.00 0.00 0.00 0.00 0.00 0.00 0.00 0.00 0.00 0.00 0.00 0.00 0.00 0.00 0.00 0.00 0.00 0.00 0.00 0.00 0.00
0.00 0.00 0.00 0.00 0.00 0.00 0.00 0.00 0.00 0.00 0.00 0.00 0.00 0.00 0.00 0.00 0.00 0.00 0.00 0.00 0.00 0.00 0.00 0.00 0.00 0.00 0.00 0.00 0.00 0.00 0.00 0.00 0.00 0.00 0.00 0.00 0.00 0.00 0.00 0.00 0.00 0.00 0.00 0.00 0.00 0.00 0.00 0.00 0.00
0.00 0.00 0.00 0.00 0.00 0.00 0.00 0.00 0.00 0.00 0.00 0.00 0.00 0.00 0.00 0.00 0.00 0.00 0.00 0.00 0.00 0.00 0.00 0.00 0.00 0.00 0.00 0.00 0.00 0.00 0.00 0.00 0.00 0.00 0.00 0.00 0.00 0.00 0.00 0.00 0.00 0.01 0.03 0.04 0.05 0.04 0.00 0.00 0.00
0.00 0.00 0.00 0.00 0.00 0.00 0.00 0.00 0.00 0.00 0.00 0.00 0.00 0.00 0.00 0.00 0.00 0.00 0.00 0.00 0.00 0.00 0.00 0.00 0.00 0.00 0.00 0.00 0.00 0.00 0.00 0.00 0.00 0.00 0.00 0.00 0.00 0.00 0.00 0.00 0.01 0.04 0.07 0.07 0.06 0.04 0.03 0.01 0.00
0.00 0.00 0.00 0.00 0.00 0.00 0.00 0.00 0.00 0.00 0.00 0.00 0.00 0.00 0.00 0.00 0.00 0.00 0.00 0.00 0.00 0.00 0.00 0.00 0.00 0.00 0.00 0.00 0.00 0.00 0.00 0.00 0.00 0.00 0.00 0.00 0.00 0.00 0.00 0.01 0.02 0.03 0.06 0.07 0.05 0.05 0.05 0.03 0.04
0.00 0.00 0.00 0.00 0.00 0.00 0.00 0.00 0.00 0.00 0.00 0.00 0.00 0.00 0.00 0.00 0.00 0.00 0.00 0.00 0.00 0.00 0.00 0.00 0.00 0.00 0.00 0.00 0.00 0.00 0.00 0.00 0.00 0.00 0.00 0.00 0.00 0.00 0.01 0.04 0.05 0.08 0.08 0.06 0.06 0.06 0.05 0.05 0.07
0.00 0.00 0.00 0.00 0.00 0.00 0.00 0.00 0.00 0.00 0.00 0.00 0.00 0.00 0.00 0.00 0.00 0.00 0.00 0.00 0.00 0.00 0.00 0.00 0.00 0.00 0.00 0.00 0.00 0.00 0.00 0.00 0.00 0.00 0.00 0.00 0.00 0.00 0.02 0.04 0.08 0.11 0.09 0.06 0.07 0.07 0.04 0.06 0.06
0.00 0.00 0.00 0.00 0.00 0.00 0.00 0.00 0.00 0.00 0.00 0.00 0.00 0.00 0.00 0.00 0.00 0.00 0.00 0.00 0.00 0.00 0.00 0.00 0.00 0.00 0.00 0.00 0.00 0.00 0.00 0.00 0.00 0.00 0.00 0.00 0.00 0.00 0.02 0.07 0.13 0.11 0.09 0.06 0.08 0.06 0.07 0.06 0.08
0.00 0.00 0.00 0.00 0.00 0.00 0.00 0.00 0.00 0.00 0.00 0.00 0.00 0.00 0.00 0.00 0.00 0.00 0.00 0.00 0.00 0.00 0.00 0.00 0.00 0.00 0.00 0.00 0.00 0.00 0.00 0.00 0.00 0.00 0.00 0.00 0.00 0.00 0.03 0.10 0.12 0.11 0.09 0.05 0.06 0.07 0.11 0.11 0.11
0.00 0.00 0.00 0.00 0.00 0.00 0.00 0.00 0.00 0.00 0.00 0.00 0.00 0.00 0.00 0.00 0.00 0.00 0.00 0.00 0.00 0.00 0.00 0.00 0.00 0.00 0.00 0.00 0.00 0.00 0.00 0.00 0.00 0.00 0.00 0.00 0.00 0.01 0.05 0.04 0.05 0.06 0.03 0.05 0.06 0.09 0.10 0.11 0.10
0.00 0.00 0.00 0.00 0.00 0.00 0.00 0.00 0.00 0.00 0.00 0.00 0.00 0.00 0.00 0.00 0.00 0.00 0.00 0.00 0.00 0.00 0.00 0.00 0.00 0.00 0.00 0.00 0.00 0.00 0.00 0.00 0.00 0.00 0.00 0.00 0.00 0.02 0.04 0.05 0.03 0.01 0.03 0.06 0.08 0.12 0.09 0.15 0.13
0.00 0.00 0.00 0.00 0.00 0.00 0.00 0.00 0.00 0.00 0.00 0.00 0.00 0.00 0.00 0.00 0.00 0.00 0.00 0.00 0.00 0.00 0.00 0.00 0.00 0.00 0.00 0.00 0.00 0.00 0.00 0.00 0.00 0.00 0.00 0.04 0.08 0.05 0.03 0.02 0.03 0.07 0.10 0.06 0.09 0.04 0.06 0.09 0.13
0.00 0.00 0.00 0.00 0.00 0.00 0.00 0.00 0.00 0.00 0.00 0.00 0.00 0.00 0.00 0.00 0.00 0.00 0.00 0.00 0.00 0.00 0.00 0.00 0.00 0.00 0.00 0.00 0.00 0.00 0.00 0.00 0.00 0.00 0.04 0.11 0.15 0.09 0.04 0.03 0.08 0.11 0.10 0.08 0.03 0.03 0.05 0.10 0.13
0.00 0.00 0.00 0.00 0.00 0.00 0.00 0.00 0.00 0.00 0.00 0.00 0.00 0.00 0.00 0.00 0.00 0.00 0.00 0.00 0.00 0.00 0.00 0.00 0.00 0.00 0.00 0.00 0.00 0.00 0.00 0.00 0.00 0.02 0.08 0.08 0.12 0.10 0.07 0.02 0.06 0.10 0.07 0.04 0.03 0.03 0.09 0.02 0.06
0.00 0.00 0.00 0.00 0.00 0.00 0.00 0.00 0.00 0.00 0.00 0.00 0.00 0.00 0.00 0.00 0.00 0.00 0.00 0.00 0.00 0.00 0.00 0.00 0.00 0.00 0.00 0.00 0.00 0.00 0.00 0.00 0.01 0.07 0.11 0.09 0.05 0.09 0.06 0.03 0.06 0.07 0.02 0.01 0.05 0.08 0.08 0.07 0.09
0.00 0.00 0.00 0.00 0.00 0.00 0.00 0.00 0.00 0.00 0.00 0.00 0.00 0.00 0.00 0.00 0.00 0.00 0.00 0.00 0.00 0.00 0.00 0.00 0.00 0.00 0.00 0.00 0.00 0.00 0.00 0.01 0.01 0.09 0.09 0.08 0.05 0.03 0.02 0.06 0.09 0.03 0.03 0.07 0.08 0.10 0.05 0.16 0.11
0.00 0.00 0.00 0.00 0.00 0.00 0.00 0.00 0.00 0.00 0.00 0.00 0.00 0.00 0.00 0.00 0.00 0.00 0.00 0.00 0.00 0.00 0.00 0.00 0.00 0.00 0.00 0.00 0.00 0.00 0.00 0.00 0.00 0.10 0.12 0.05 0.05 0.00 0.03 0.09 0.07 0.03 0.01 0.04 0.07 0.08 0.07 0.09 0.03
0.00 0.00 0.00 0.00 0.00 0.00 0.00 0.00 0.00 0.00 0.00 0.00 0.00 0.00 0.00 0.00 0.00 0.00 0.00 0.00 0.00 0.00 0.00 0.00 0.00 0.00 0.00 0.00 0.00 0.00 0.00 0.00 0.02 0.11 0.07 0.08 0.05 0.00 0.01 0.05 0.04 0.04 0.05 0.05 0.07 0.08 0.09 0.08 0.10
0.00 0.00 0.00 0.00 0.00 0.00 0.00 0.00 0.00 0.00 0.00 0.00 0.00 0.00 0.00 0.00 0.00 0.00 0.00 0.00 0.00 0.00 0.00 0.00 0.00 0.00 0.00 0.00 0.00 0.00 0.00 0.00 0.04 0.03 0.05 0.06 0.03 0.00 0.00 0.00 0.01 0.03 0.05 0.10 0.10 0.08 0.08 0.04 0.04
MSLP
1011.94 1011.40 1010.80 1009.50 1007.64 1004.61 1001.92 1000.22 999.34 999.56 1000.12 1000.35 1000.69 1000.72 1000.38 1000.40 1000.52 1000.89 1002.64 1003.01 1003.57 1004.64 1006.64 1008.15 1008.85 1009.26 1009.77 1010.11 1010.61 1011.08 1011.47 1011.73 1012.02 1012.30 1012.60 1012.89 1013.17 1013.36 1013.51 1013.74 1013.87 1013.93 1013.95 1013.95 1013.96 1013.91 1014.00 1014.03 1013.98
1010.34 1010.11 1009.28 1007.57 1005.43 1002.11 999.63 999.15 999.19 999.39 999.99 1000.66 1000.68 1000.64 1000.54 1000.61 1000.76 1001.15 1001.91 1003.20 1003.73 1004.78 1006.29 1007.47 1008.51 1009.10 1009.60 1010.14 1010.49 1010.93 1011.27 1011.61 1011.93 1012.27 1012.56 1012.87 1013.07 1013.25 1013.42 1013.64 1013.81 1013.88 1013.91 1013.88 1013.88 1013.81 1013.88 1013.91 1013.99
1010.36 1009.16 1007.66 1005.40 1003.40 1000.43 999.38 1000.03 999.57 999.62 1000.54 1000.59 1000.37 1000.69 1000.69 1000.84 1001.40 1001.70 1002.53 1003.30 1003.72 1004.75 1005.87 1006.94 1008.21 1008.88 1009.33 1009.80 1010.11 1010.57 1011.01 1011.41 1011.75 1012.09 1012.41 1012.71 1012.89 1013.06 1013.25 1013.48 1013.57 1013.67 1013.63 1013.64 1013.60 1013.62 1013.59 1013.60 1013.66
1009.32 1008.52 1007.25 1004.45 1001.38 999.76 999.10 998.80 998.99 999.83 1000.03 1000.51 1000.44 1000.43 1000.72 1001.63 1001.86 1002.28 1002.94 1003.40 1003.82 1004.65 1005.42 1006.66 1007.84 1008.54 1008.96 1009.41 1009.82 1010.23 1010.74 1011.10 1011.49 1011.80 1012.09 1012.41 1012.68 1012.85 1013.01 1013.24 1013.36 1013.35 1013.40 1013.37 1013.39 1013.41 1013.40 1013.39 1013.52
1008.56 1006.89 1004.85 1002.86 1001.32 999.91 999.44 999.47 999.36 999.70 999.89 1000.17 1000.35 1000.50 1000.61 1001.66 1002.49 1002.86 1003.05 1003.43 1003.71 1004.21 1005.14 1006.36 1007.69 1008.23 1008.59 1009.03 1009.46 1009.86 1010.30 1010.75 1011.20 1011.49 1011.84 1012.20 1012.47 1012.66 1012.78 1012.97 1013.07 1013.12 1013.13 1013.10 1013.09 1013.10 1013.14 1013.26 1013.34
1007.60 1006.27 1003.93 1001.89 1000.49 999.51 999.41 999.71 999.76 999.89 999.97 999.83 1000.60 1000.70 1000.67 1001.49 1001.95 1002.61 1002.93 1003.34 1003.58 1003.80 1004.82 1005.47 1007.44 1008.07 1008.37 1008.74 1009.27 1009.67 1010.09 1010.56 1010.99 1011.35 1011.59 1011.90 1012.14 1012.34 1012.52 1012.63 1012.75 1012.80 1012.83 1012.87 1012.90 1012.89 1012.96 1013.06 1013.10
1006.68 1004.82 1003.26 1001.72 1000.34 999.55 999.48 999.58 999.62 999.80 999.51 999.69 1000.20 1000.87 1000.58 1000.78 1002.14 1002.70 1002.90 1003.04 1003.37 1003.56 1004.37 1005.18 1006.61 1007.72 1008.45 1008.73 1009.12 1009.50 1009.85 1010.31 1010.75 1011.10 1011.32 1011.68 1011.94 1012.10 1012.23 1012.34 1012.46 1012.52 1012.64 1012.74 1012.75 1012.71 1012.74 1012.71 1012.79
1006.51 1005.13 1003.09 1001.73 1000.78 999.75 999.37 999.80 999.99 1000.08 1000.05 1000.39 1001.27 1001.09 1000.41 1000.71 1001.86 1002.15 1002.04 1002.19 1002.57 1003.08 1003.52 1004.76 1005.53 1006.65 1007.58 1008.22 1009.14 1009.39 1009.67 1010.13 1010.52 1010.78 1011.05 1011.32 1011.69 1011.80 1011.78 1011.89 1011.98 1012.08 1012.38 1012.54 1012.58 1012.55 1012.47 1012.44 1012.47
1006.09 1004.84 1002.75 1001.62 1000.77 999.85 999.61 999.62 999.75 1000.54 1001.20 1001.06 1001.08 1000.80 1000.77 1001.00 1001.40 1001.69 1001.54 1001.45 1001.65 1002.01 1002.81 1003.70 1004.43 1005.40 1006.59 1007.02 1008.04 1009.42 1009.71 1009.94 1010.35 1010.52 1010.81 1011.10 1011.02 1010.60 1010.42 1010.71 1011.01 1011.51 1012.01 1012.21 1012.32 1012.36 1012.31 1012.23 1012.14
1005.74 1003.89 1002.43 1001.60 1000.73 1000.18 999.70 999.45 999.77 1000.08 1000.40 1000.84 1000.94 1000.49 1000.16 1000.79 1001.16 1001.16 1001.01 1000.69 1000.71 1000.75 1001.66 1002.66 1003.74 1004.50 1005.45 1005.84 1006.69 1008.20 1008.52 1009.08 1009.43 1009.55 1009.70 1009.98 1009.84 1009.69 1009.74 1010.24 1011.07 1011.29 1011.51 1011.69 1011.80 1011.91 1011.91 1011.91 1011.26
1004.30 1002.84 1002.29 1001.12 1000.56 1000.36 1000.08 999.62 999.73 999.97 1000.06 1000.03 1000.17 1000.32 1000.24 1000.64 1000.83 1000.81 1000.62 1000.31 1000.05 1000.16 1000.37 1001.43 1002.87 1003.90 1004.81 1005.11 1005.67 1006.62 1007.47 1007.97 1008.30 1008.71 1008.94 1008.99 1009.20 1009.15 1009.19 1009.26 1009.64 1010.41 1010.86 1010.95 1010.56 1010.99 1011.15 1010.46 1010.25
1003.27 1002.55 1002.32 1001.58 1000.93 1000.43 999.87 999.85 999.61 1000.02 999.99 1000.11 1000.32 1000.42 1000.38 1000.53 1000.44 1000.20 1000.12 1000.04 999.66 999.36 999.37 1000.38 1002.01 1003.39 1004.32 1004.55 1005.07 1005.66 1006.23 1006.80 1007.26 1007.67 1008.44 1009.01 1009.14 1009.11 1009.20 1009.04 1008.93 1009.65 1010.07 1010.11 1010.13 1010.27 1010.07 1010.10 1009.96
1001.76 1001.78 1001.66 1001.29 1001.04 1000.51 1000.29 999.77 999.57 999.63 1000.11 1000.06 1000.19 1000.34 1000.15 1000.11 999.86 999.77 999.66 999.47 999.47 999.28 999.19 999.83 1001.19 1002.81 1003.80 1004.52 1004.41 1005.03 1005.39 1006.02 1006.55 1007.15 1007.76 1008.48 1008.56 1008.49 1008.65 1008.67 1009.07 1009.48 1009.30 1009.37 1009.87 1010.19 1009.97 1009.85 1010.03
1001.50 1001.12 1000.80 1000.77 1000.46 1000.30 1000.12 999.54 999.63 999.75 999.95 999.48 999.53 999.58 999.49 999.35 999.28 999.12 999.09 999.03 999.19 999.19 999.17 999.96 1000.56 1002.12 1003.30 1004.08 1004.27 1004.45 1004.90 1005.25 1006.17 1006.59 1007.01 1007.80 1008.33 1008.32 1008.40 1008.50 1008.98 1009.20 1009.15 1009.36 1009.86 1010.12 1010.06 1009.69 1009.39
1001.38 1000.53 1000.22 999.78 1000.01 999.60 999.96 998.69 998.70 999.27 999.23 998.69 998.73 998.74 998.61 998.86 998.75 998.61 998.51 998.57 998.90 999.03 999.35 1000.00 1000.42 1001.71 1002.95 1003.86 1004.43 1004.64 1005.06 1005.55 1005.61 1006.19 1006.63 1007.23 1007.98 1008.18 1008.36 1008.24 1008.25 1008.64 1009.29 1009.49 1009.62 1009.74 1009.77 1009.66 1009.17
1001.22 1000.56 999.17 999.20 999.55 999.47 1000.03 996.99 998.49 998.71 998.28 997.78 997.71 997.76 997.83 998.53 998.13 998.09 998.21 998.18 998.56 998.85 999.19 999.86 1000.25 1001.45 1002.91 1003.66 1004.26 1004.67 1004.74 1005.33 1005.40 1005.75 1006.09 1006.92 1007.54 1007.87 1008.00 1008.11 1008.19 1008.43 1008.93 1009.27 1009.53 1009.77 1009.56 1009.61 1009.54
1000.27 998.70 998.13 998.82 998.80 998.64 998.50 996.45 997.90 998.14 997.65 997.50 997.09 997.20 997.77 997.69 997.56 997.72 997.74 997.76 998.09 998.47 999.13 999.73 1000.51 1001.42 1002.59 1003.53 1004.18 1004.78 1004.81 1005.14 1005.21 1005.46 1005.80 1006.20 1006.82 1007.18 1007.62 1007.81 1008.14 1008.60 1008.98 1009.06 1009.24 1009.50 1009.36 1009.47 1009.36
998.29 998.27 998.70 997.99 998.09 997.67 997.17 996.03 996.35 997.08 997.25 997.18 996.47 996.70 997.25 996.93 996.89 996.95 997.00 997.15 998.02 998.68 999.32 1000.00 1001.13 1001.64 1002.47 1003.29 1004.18 1004.40 1004.72 1005.17 1005.10 1005.29 1005.53 1005.85 1006.32 1006.77 1007.11 1007.46 1008.04 1008.44 1008.58 1008.66 1009.01 1009.17 1008.86 1008.56 1009.25
998.68 998.37 997.34 997.08 996.96 997.26 996.43 995.69 995.51 996.62 996.81 996.23 995.92 995.85 996.29 996.38 996.33 996.26 996.42 997.81 998.63 999.23 1000.04 1000.76 1001.29 1001.68 1002.61 1003.27 1003.63 1003.79 1004.09 1004.58 1004.73 1004.97 1005.35 1005.84 1006.15 1006.41 1006.96 1007.36 1007.92 1008.06 1008.21 1008.22 1008.57 1008.65 1008.74 1008.94 1009.31
998.87 998.09 996.85 996.89 996.55 996.25 995.72 995.22 995.33 995.34 995.69 995.74 995.29 994.89 995.06 995.69 995.42 995.76 996.29 997.94 998.89 999.72 1000.39 1000.96 1001.34 1001.93 1002.63 1003.00 1003.20 1003.18 1003.65 1003.79 1004.17 1004.42 1004.92 1005.58 1005.98 1006.40 1006.83 1007.26 1007.55 1007.58 1007.83 1008.01 1008.33 1008.40 1008.62 1008.94 1009.16
997.52 997.10 997.03 996.71 996.82 996.11 995.74 994.85 994.55 994.70 994.72 995.00 995.12 994.85 994.77 994.66 994.95 995.22 996.12 997.94 999.08 999.96 1000.60 1001.05 1001.47 1002.27 1002.49 1002.69 1003.11 1003.65 1003.91 1004.12 1004.34 1004.55 1004.92 1005.25 1005.91 1006.37 1006.64 1006.93 1007.15 1007.32 1007.49 1007.35 1007.75 1007.94 1008.36 1008.45 1008.64
995.94 996.71 997.22 997.12 996.95 995.80 996.13 994.01 993.21 993.98 993.87 993.92 993.74 993.44 993.62 994.03 994.04 994.35 995.91 997.85 999.15 999.94 1000.68 1001.08 1001.76 1002.32 1002.51 1003.05 1003.20 1003.52 1003.38 1003.39 1003.42 1004.00 1004.22 1004.96 1005.68 1006.05 1006.28 1006.64 1006.78 1006.97 1006.93 1007.06 1007.36 1007.81 1008.05 1008.23 1008.22
994.33 996.81 996.57 996.90 996.94 996.59 995.38 995.02 992.00 993.75 992.94 992.76 992.78 992.81 993.06 993.20 993.22 993.74 995.90 997.70 998.93 999.95 1000.58 1001.23 1001.93 1002.35 1002.84 1003.13 1003.06 1003.55 1003.53 1003.37 1003.79 1004.07 1004.63 1005.11 1005.74 1005.96 1006.11 1006.30 1006.40 1006.73 1007.04 1007.04 1007.46 1007.57 1007.70 1007.80 1007.94
996.13 996.40 996.46 996.36 996.32 995.15 994.33 994.85 991.62 992.48 991.95 991.95 992.08 991.99 991.95 992.15 992.59 994.14 996.02 997.73 998.89 999.76 1000.55 1001.38 1002.02 1002.45 1002.83 1003.07 1003.29 1003.60 1003.65 1003.86 1003.97 1004.20 1004.54 1005.31 1005.78 1005.93 1005.94 1005.87 1006.31 1006.57 1006.73 1007.05 1006.99 1007.20 1007.34 1007.56 1007.70
995.24 995.50 995.26 995.31 994.29 991.58 993.98 993.55 991.13 991.53 991.50 991.34 991.51 991.39 991.14 991.32 992.89 994.73 996.33 997.57 998.69 999.50 1000.38 1001.31 1001.93 1002.40 1002.74 1003.10 1003.44 1003.72 1003.99 1004.32 1004.44 1004.59 1005.03 1005.18 1005.46 1005.66 1005.79 1005.86 1006.09 1006.44 1006.57 1006.69 1006.86 1007.13 1007.27 1007.31 1007.35
993.59 993.77 992.86 991.89 991.98 992.11 992.55 991.36 990.34 990.41 990.36 990.63 990.89 990.47 990.87 992.11 993.47 994.94 996.31 997.37 998.46 999.41 1000.22 1000.93 1001.67 1002.13 1002.60 1002.98 1003.36 1003.66 1003.95 1003.96 1004.21 1004.58 1005.01 1005.19 1005.14 1005.56 1005.73 1005.63 1005.88 1006.21 1006.29 1006.16 1006.57 1006.93 1007.14 1007.20 1007.22
992.47 992.25 991.74 992.63 991.58 990.87 989.81 988.94 989.38 989.89 989.65 989.95 989.93 990.35 991.06 992.31 993.73 994.99 996.13 997.32 998.35 999.28 1000.10 1000.73 1001.32 1001.88 1002.41 1002.87 1003.28 1003.61 1003.87 1004.14 1004.20 1004.52 1004.99 1005.05 1005.27 1005.37 1005.44 1005.64 1006.03 1006.19 1006.29 1006.55 1006.80 1006.99 1006.81 1007.16 1007.18
991.81 991.73 992.96 992.36 991.03 989.47 989.03 988.59 987.87 988.67 988.53 988.89 989.41 989.67 990.71 992.44 993.86 994.94 996.11 997.19 998.33 999.25 1000.00 1000.61 1001.20 1001.73 1002.29 1002.72 1003.18 1003.35 1003.94 1004.07 1004.06 1004.66 1005.03 1005.04 1005.21 1004.80 1005.28 1005.82 1005.98 1005.79 1005.88 1006.40 1006.82 1006.86 1006.92 1007.22 1007.61
991.05 990.45 991.18 991.58 990.61 989.60 989.04 988.18 987.54 988.02 988.39 987.99 988.31 989.19 990.40 992.25 993.62 994.78 995.95 997.25 998.25 999.15 999.79 1000.50 1000.98 1001.59 1002.16 1002.56 1002.96 1003.32 1003.76 1003.86 1004.07 1004.72 1004.88 1005.19 1005.07 1005.14 1005.46 1005.76 1005.83 1005.97 1006.21 1006.56 1006.96 1006.97 1007.04 1007.43 1007.61
991.06 990.21 990.61 989.74 989.82 989.60 988.88 988.27 988.41 988.47 988.32 987.74 988.00 988.93 990.16 992.23 993.36 994.58 995.83 996.97 998.00 998.86 999.66 1000.33 1000.80 1001.29 1001.97 1002.37 1002.81 1003.18 1003.81 1003.70 1004.44 1004.68 1005.01 1005.23 1005.22 1004.97 1004.99 1005.43 1005.39 1005.62 1006.20 1006.70 1006.75 1006.82 1007.00 1007.25 1007.49
Thickness
5787 5793 5799 5798 5777 5796 5799 5817 5850 5830 5826 5843 5845 5834 5831 5834 5818 5801 5845 5846 5840 5828 5808 5791 5783 5778 5772 5769 5763 5757 5752 5748 5742 5737 5731 5727 5723 5720 5718 5713 5712 5711 5710 5710 5710 5711 5711 5712 5713
5797 5800 5800 5795 5776 5787 5819 5844 5826 5838 5840 5842 5840 5835 5826 5816 5843 5842 5834 5840 5835 5824 5807 5794 5782 5776 5770 5765 5760 5754 5749 5744 5738 5732 5727 5721 5717 5715 5712 5708 5704 5703 5703 5703 5703 5704 5704 5705 5705
5794 5803 5789 5790 5791 5802 5810 5823 5833 5836 5836 5833 5830 5838 5829 5819 5836 5838 5843 5837 5832 5819 5807 5794 5780 5774 5768 5764 5760 5753 5747 5740 5735 5729 5724 5718 5714 5711 5708 5704 5701 5699 5698 5698 5700 5700 5700 5700 5701
5790 5789 5790 5780 5796 5831 5833 5844 5846 5830 5838 5836 5836 5819 5834 5838 5833 5839 5839 5835 5827 5818 5809 5795 5781 5773 5767 5763 5758 5753 5745 5738 5731 5727 5722 5716 5711 5707 5704 5700 5697 5696 5695 5694 5693 5694 5695 5696 5696
5790 5789 5775 5784 5797 5825 5835 5841 5841 5826 5830 5828 5830 5815 5821 5825 5836 5835 5833 5831 5823 5818 5809 5795 5780 5773 5767 5763 5757 5751 5744 5737 5730 5725 5719 5712 5707 5702 5699 5695 5693 5692 5690 5690 5690 5690 5690 5690 5691
5768 5782 5769 5778 5801 5828 5833 5835 5830 5824 5828 5834 5815 5815 5822 5833 5832 5830 5831 5825 5824 5817 5809 5800 5779 5770 5766 5761 5754 5748 5742 5734 5728 5722 5717 5711 5705 5700 5695 5692 5689 5688 5686 5684 5684 5685 5684 5685 5687
5765 5774 5770 5787 5800 5812 5821 5837 5823 5822 5829 5824 5829 5801 5826 5830 5822 5827 5825 5823 5821 5817 5808 5798 5782 5769 5762 5757 5752 5746 5740 5732 5726 5719 5715 5709 5703 5698 5693 5689 5686 5684 5682 5679 5678 5678 5679 5680 5682
5770 5769 5766 5784 5785 5796 5830 5820 5828 5817 5816 5830 5822 5792 5807 5829 5824 5826 5826 5823 5818 5815 5809 5797 5787 5774 5763 5757 5747 5743 5737 5729 5722 5718 5712 5707 5700 5695 5692 5687 5684 5682 5677 5675 5673 5673 5674 5676 5677
5779 5749 5754 5775 5785 5801 5827 5810 5831 5821 5802 5811 5815 5815 5821 5827 5828 5820 5817 5818 5817 5813 5806 5800 5791 5780 5767 5761 5751 5736 5732 5726 5719 5714 5709 5703 5699 5699 5697 5694 5688 5681 5674 5671 5669 5669 5669 5670 5672
5749 5748 5762 5794 5802 5798 5816 5817 5815 5806 5797 5798 5804 5823 5829 5816 5811 5809 5809 5811 5813 5812 5804 5800 5792 5782 5772 5766 5757 5742 5735 5727 5721 5717 5712 5707 5705 5702 5697 5690 5681 5677 5673 5670 5668 5666 5666 5665 5671
5758 5749 5775 5792 5805 5807 5801 5808 5817 5797 5787 5804 5799 5808 5813 5810 5806 5805 5808 5811 5814 5817 5817 5801 5791 5783 5773 5767 5761 5751 5739 5732 5726 5719 5713 5710 5704 5700 5696 5693 5688 5679 5672 5669 5671 5666 5665 5671 5674
5744 5763 5769 5781 5793 5793 5793 5803 5796 5794 5794 5809 5807 5809 5805 5802 5802 5805 5804 5807 5813 5818 5816 5802 5791 5781 5772 5769 5762 5755 5746 5738 5730 5724 5714 5704 5699 5696 5692 5689 5687 5679 5671 5670 5668 5666 5668 5668 5669
5754 5762 5769 5778 5781 5784 5789 5783 5786 5786 5799 5806 5802 5800 5798 5798 5803 5809 5809 5809 5809 5805 5809 5798 5790 5778 5772 5764 5762 5756 5750 5740 5732 5723 5714 5704 5699 5696 5691 5688 5681 5673 5672 5670 5665 5661 5663 5664 5662
5763 5763 5764 5770 5771 5776 5769 5777 5781 5783 5796 5798 5797 5796 5799 5801 5803 5804 5804 5803 5799 5798 5795 5792 5787 5779 5771 5763 5758 5757 5750 5742 5731 5723 5715 5705 5695 5692 5687 5684 5676 5670 5668 5664 5659 5656 5655 5658 5661
5753 5742 5753 5760 5766 5765 5774 5758 5764 5786 5793 5790 5793 5795 5797 5799 5803 5800 5805 5800 5795 5793 5791 5785 5784 5778 5768 5759 5753 5750 5743 5735 5729 5722 5713 5703 5692 5686 5681 5678 5675 5669 5660 5656 5654 5652 5652 5651 5656
5727 5736 5726 5758 5761 5763 5754 5743 5771 5788 5787 5786 5792 5795 5794 5792 5798 5804 5801 5800 5796 5793 5788 5785 5784 5774 5763 5756 5750 5744 5739 5732 5726 5720 5712 5701 5690 5682 5677 5673 5669 5663 5656 5651 5647 5642 5643 5643 5644
5722 5715 5733 5738 5762 5761 5756 5751 5766 5782 5782 5778 5787 5785 5784 5788 5795 5799 5798 5800 5797 5794 5787 5782 5777 5768 5760 5752 5745 5737 5734 5727 5723 5716 5709 5699 5690 5682 5674 5669 5663 5655 5649 5646 5642 5638 5639 5636 5638
5719 5719 5722 5727 5753 5758 5752 5755 5775 5776 5771 5770 5782 5779 5778 5786 5790 5797 5799 5800 5794 5788 5784 5777 5767 5763 5757 5749 5738 5734 5728 5720 5717 5711 5705 5696 5687 5679 5672 5665 5656 5649 5644 5641 5636 5634 5637 5639 5632
5732 5723 5728 5743 5761 5744 5747 5755 5771 5763 5762 5768 5775 5777 5779 5782 5791 5798 5799 5788 5782 5778 5771 5765 5760 5758 5749 5739 5732 5728 5721 5716 5712 5707 5700 5690 5682 5674 5666 5659 5650 5646 5641 5638 5633 5631 5628 5626 5625
5710 5711 5724 5742 5756 5754 5752 5746 5761 5768 5762 5766 5773 5781 5783 5779 5788 5792 5790 5780 5772 5767 5763 5759 5756 5751 5742 5737 5732 5729 5722 5717 5711 5705 5697 5687 5677 5669 5660 5652 5645 5642 5637 5632 5627 5625 5621 5619 5620
5712 5711 5719 5725 5741 5747 5742 5734 5748 5761 5767 5766 5769 5776 5777 5781 5782 5786 5783 5772 5766 5759 5757 5754 5751 5742 5738 5734 5728 5720 5715 5708 5701 5694 5687 5682 5670 5662 5655 5648 5642 5638 5633 5632 5627 5625 5620 5618 5619
5705 5727 5723 5719 5712 5700 5738 5710 5748 5751 5752 5760 5771 5774 5777 5781 5785 5789 5781 5766 5759 5757 5754 5751 5744 5737 5733 5727 5720 5713 5709 5703 5701 5693 5686 5676 5667 5658 5651 5644 5640 5635 5634 5631 5628 5624 5620 5618 5616
5724 5723 5719 5715 5701 5706 5719 5703 5745 5747 5745 5759 5762 5772 5776 5781 5787 5787 5776 5764 5759 5754 5749 5745 5738 5731 5725 5720 5717 5707 5702 5702 5694 5686 5676 5669 5660 5653 5647 5642 5638 5633 5629 5629 5624 5623 5622 5621 5619
5717 5707 5710 5711 5706 5686 5719 5702 5728 5740 5752 5755 5765 5772 5779 5785 5788 5782 5772 5762 5754 5752 5746 5739 5731 5724 5720 5715 5710 5703 5698 5691 5685 5680 5672 5661 5652 5647 5644 5642 5635 5631 5629 5626 5627 5626 5625 5623 5623
5700 5693 5674 5673 5688 5705 5724 5707 5734 5755 5758 5760 5760 5769 5782 5789 5780 5770 5761 5756 5750 5747 5741 5733 5726 5718 5716 5710 5703 5698 5692 5684 5678 5672 5663 5657 5650 5645 5642 5639 5635 5630 5628 5629 5629 5627 5626 5627 5627
5689 5694 5688 5673 5689 5705 5727 5703 5736 5765 5768 5768 5769 5780 5784 5776 5771 5764 5759 5754 5749 5744 5737 5731 5723 5717 5712 5707 5700 5695 5689 5685 5679 5671 5662 5655 5652 5645 5642 5641 5637 5633 5633 5636 5634 5630 5629 5630 5630
5685 5684 5730 5706 5731 5722 5745 5761 5762 5763 5764 5766 5772 5776 5773 5770 5765 5761 5758 5752 5747 5740 5734 5728 5722 5716 5711 5704 5698 5691 5686 5680 5675 5669 5661 5656 5651 5648 5646 5643 5638 5637 5638 5636 5633 5632 5634 5632 5633
5684 5717 5679 5700 5683 5701 5736 5742 5750 5754 5760 5769 5769 5774 5775 5766 5760 5758 5754 5750 5744 5738 5732 5727 5720 5714 5708 5703 5696 5691 5682 5678 5674 5666 5658 5655 5652 5654 5649 5643 5641 5643 5644 5640 5636 5636 5637 5634 5631
5677 5689 5694 5710 5718 5709 5710 5733 5774 5762 5765 5775 5780 5781 5775 5764 5759 5756 5753 5747 5742 5736 5730 5722 5718 5712 5705 5702 5695 5688 5681 5677 5673 5664 5660 5655 5655 5653 5649 5647 5645 5644 5642 5641 5637 5638 5637 5634 5634
5683 5691 5697 5697 5697 5722 5726 5734 5766 5764 5771 5784 5784 5783 5778 5765 5761 5758 5752 5745 5739 5733 5726 5719 5716 5711 5705 5701 5694 5687 5679 5678 5667 5663 5659 5657 5655 5656 5655 5651 5651 5650 5646 5642 5642 5640 5640 5639 5637